QPF
0.01 0.01 0.02 0.03 0.03 0.03 0.05 0.05 0.04 0.04 0.04 0.04 0.05 0.05 0.04 0.04 0.05 0.06 0.08 0.09 0.09 0.11 0.11 0.11 0.11 0.09 0.08 0.07 0.05 0.04 0.03 0.03 0.02 0.01 0.01 0.01 0.00 0.00 0.00 0.01 0.01 0.01 0.00
0.01 0.02 0.02 0.03 0.03 0.03 0.04 0.05 0.05 0.04 0.02 0.03 0.03 0.04 0.04 0.04 0.04 0.03 0.04 0.06 0.07 0.08 0.10 0.10 0.12 0.12 0.11 0.10 0.09 0.07 0.06 0.05 0.04 0.04 0.04 0.03 0.02 0.01 0.00 0.00 0.01 0.01 0.01
0.00 0.01 0.01 0.01 0.02 0.02 0.03 0.04 0.04 0.04 0.04 0.04 0.05 0.05 0.04 0.05 0.05 0.03 0.03 0.03 0.05 0.06 0.08 0.07 0.08 0.09 0.10 0.09 0.06 0.06 0.06 0.06 0.05 0.04 0.05 0.05 0.04 0.03 0.02 0.01 0.01 0.00 0.00
0.00 0.01 0.01 0.01 0.01 0.01 0.02 0.03 0.04 0.05 0.05 0.05 0.04 0.04 0.03 0.03 0.02 0.02 0.02 0.03 0.03 0.04 0.04 0.04 0.05 0.07 0.06 0.05 0.05 0.03 0.03 0.03 0.03 0.02 0.02 0.02 0.02 0.02 0.01 0.01 0.00 0.00 0.00
0.00 0.00 0.00 0.00 0.01 0.01 0.01 0.01 0.03 0.05 0.05 0.05 0.04 0.04 0.04 0.03 0.03 0.03 0.02 0.03 0.03 0.03 0.03 0.02 0.02 0.03 0.04 0.04 0.03 0.03 0.02 0.01 0.01 0.01 0.01 0.01 0.01 0.01 0.01 0.01 0.00 0.00 0.00
0.00 0.00 0.01 0.01 0.01 0.01 0.01 0.01 0.02 0.03 0.05 0.05 0.05 0.04 0.04 0.04 0.03 0.03 0.03 0.02 0.02 0.02 0.03 0.03 0.02 0.02 0.02 0.03 0.03 0.03 0.03 0.02 0.02 0.01 0.00 0.00 0.00 0.00 0.00 0.01 0.00 0.00 0.00
0.00 0.00 0.01 0.01 0.01 0.01 0.01 0.01 0.01 0.02 0.03 0.04 0.05 0.04 0.04 0.04 0.03 0.02 0.02 0.02 0.02 0.01 0.02 0.03 0.03 0.02 0.02 0.02 0.02 0.03 0.03 0.03 0.02 0.02 0.01 0.00 0.00 0.00 0.00 0.00 0.00 0.00 0.00
0.00 0.00 0.00 0.00 0.00 0.01 0.01 0.01 0.01 0.01 0.02 0.03 0.04 0.04 0.03 0.03 0.03 0.02 0.02 0.01 0.02 0.02 0.03 0.02 0.02 0.03 0.02 0.02 0.01 0.02 0.02 0.02 0.02 0.02 0.01 0.01 0.00 0.00 0.00 0.00 0.01 0.01 0.00
0.00 0.00 0.00 0.01 0.00 0.01 0.01 0.01 0.01 0.01 0.01 0.02 0.03 0.04 0.03 0.02 0.02 0.02 0.02 0.01 0.01 0.02 0.02 0.03 0.02 0.01 0.01 0.02 0.01 0.01 0.02 0.03 0.02 0.02 0.01 0.01 0.01 0.00 0.00 0.00 0.01 0.01 0.01
0.01 0.00 0.00 0.01 0.01 0.01 0.01 0.01 0.01 0.01 0.01 0.02 0.03 0.04 0.03 0.02 0.01 0.01 0.01 0.02 0.01 0.01 0.01 0.01 0.01 0.01 0.01 0.01 0.01 0.00 0.01 0.02 0.03 0.02 0.02 0.01 0.01 0.01 0.00 0.00 0.00 0.01 0.01
0.01 0.01 0.01 0.01 0.01 0.01 0.02 0.02 0.02 0.02 0.01 0.02 0.02 0.04 0.03 0.02 0.02 0.01 0.01 0.01 0.02 0.02 0.01 0.01 0.00 0.01 0.01 0.01 0.01 0.01 0.01 0.01 0.01 0.02 0.02 0.02 0.01 0.01 0.00 0.00 0.00 0.01 0.01
0.01 0.01 0.01 0.01 0.01 0.01 0.01 0.02 0.02 0.01 0.01 0.01 0.02 0.02 0.04 0.03 0.02 0.02 0.01 0.01 0.01 0.01 0.01 0.01 0.01 0.00 0.00 0.01 0.01 0.01 0.02 0.02 0.02 0.01 0.01 0.01 0.01 0.01 0.01 0.01 0.00 0.00 0.01
0.01 0.01 0.01 0.01 0.01 0.01 0.01 0.01 0.01 0.02 0.02 0.02 0.02 0.02 0.02 0.03 0.03 0.02 0.01 0.01 0.01 0.01 0.01 0.01 0.01 0.00 0.00 0.01 0.01 0.01 0.01 0.02 0.03 0.03 0.02 0.02 0.01 0.01 0.01 0.01 0.01 0.01 0.01
0.01 0.01 0.01 0.01 0.01 0.01 0.01 0.01 0.01 0.01 0.01 0.01 0.01 0.02 0.01 0.01 0.01 0.01 0.01 0.01 0.01 0.01 0.01 0.01 0.01 0.00 0.00 0.01 0.01 0.01 0.01 0.01 0.02 0.03 0.03 0.02 0.02 0.01 0.01 0.01 0.01 0.01 0.01
0.01 0.01 0.01 0.01 0.01 0.01 0.01 0.01 0.01 0.01 0.01 0.01 0.01 0.01 0.01 0.01 0.01 0.01 0.01 0.01 0.01 0.01 0.01 0.01 0.00 0.00 0.00 0.01 0.01 0.01 0.01 0.01 0.02 0.03 0.03 0.02 0.02 0.02 0.02 0.02 0.01 0.01 0.01
0.01 0.01 0.01 0.01 0.02 0.01 0.01 0.01 0.01 0.01 0.01 0.01 0.01 0.01 0.01 0.01 0.00 0.00 0.00 0.00 0.01 0.01 0.01 0.01 0.01 0.01 0.00 0.01 0.01 0.01 0.01 0.01 0.02 0.02 0.03 0.02 0.02 0.02 0.02 0.02 0.01 0.01 0.02
0.01 0.01 0.00 0.01 0.02 0.02 0.02 0.01 0.01 0.01 0.01 0.01 0.01 0.01 0.01 0.01 0.00 0.00 0.00 0.00 0.00 0.01 0.01 0.01 0.01 0.01 0.01 0.01 0.01 0.02 0.01 0.01 0.01 0.02 0.03 0.03 0.02 0.02 0.02 0.01 0.01 0.01 0.02
0.02 0.01 0.01 0.01 0.01 0.03 0.02 0.01 0.01 0.02 0.01 0.01 0.01 0.01 0.01 0.01 0.01 0.01 0.01 0.01 0.01 0.01 0.01 0.01 0.01 0.01 0.01 0.02 0.02 0.02 0.02 0.01 0.01 0.01 0.02 0.03 0.02 0.02 0.02 0.01 0.01 0.01 0.01
0.01 0.01 0.01 0.01 0.01 0.01 0.02 0.02 0.01 0.02 0.02 0.02 0.01 0.01 0.01 0.01 0.01 0.01 0.01 0.01 0.01 0.02 0.02 0.01 0.01 0.01 0.01 0.02 0.02 0.02 0.02 0.02 0.01 0.01 0.01 0.02 0.02 0.03 0.02 0.01 0.01 0.01 0.01
0.01 0.01 0.01 0.00 0.00 0.01 0.01 0.02 0.02 0.02 0.02 0.02 0.02 0.01 0.01 0.01 0.01 0.01 0.01 0.01 0.01 0.02 0.03 0.02 0.01 0.01 0.01 0.01 0.02 0.02 0.02 0.02 0.01 0.01 0.01 0.02 0.02 0.03 0.03 0.02 0.01 0.01 0.01
0.01 0.00 0.00 0.00 0.00 0.00 0.01 0.01 0.02 0.02 0.02 0.02 0.02 0.02 0.01 0.01 0.01 0.01 0.01 0.01 0.01 0.01 0.02 0.02 0.01 0.01 0.01 0.01 0.02 0.02 0.01 0.01 0.01 0.01 0.01 0.01 0.01 0.02 0.02 0.02 0.02 0.02 0.02
0.00 0.00 0.00 0.00 0.00 0.00 0.00 0.01 0.01 0.02 0.02 0.03 0.03 0.02 0.02 0.01 0.01 0.01 0.01 0.01 0.01 0.01 0.01 0.02 0.01 0.01 0.01 0.01 0.01 0.02 0.02 0.02 0.01 0.01 0.01 0.01 0.01 0.01 0.01 0.02 0.02 0.02 0.02
0.00 0.00 0.00 0.00 0.00 0.01 0.01 0.01 0.01 0.01 0.01 0.02 0.02 0.03 0.03 0.02 0.01 0.01 0.01 0.01 0.02 0.02 0.01 0.01 0.01 0.01 0.01 0.01 0.01 0.01 0.01 0.02 0.02 0.01 0.01 0.01 0.01 0.01 0.01 0.01 0.02 0.02 0.02
0.00 0.00 0.00 0.00 0.00 0.01 0.01 0.01 0.01 0.01 0.01 0.01 0.01 0.02 0.03 0.02 0.02 0.01 0.02 0.02 0.02 0.02 0.02 0.02 0.01 0.01 0.01 0.01 0.01 0.01 0.01 0.01 0.02 0.02 0.02 0.02 0.02 0.01 0.01 0.01 0.02 0.02 0.02
0.00 0.00 0.00 0.00 0.00 0.01 0.01 0.01 0.01 0.00 0.00 0.01 0.01 0.02 0.02 0.02 0.02 0.01 0.02 0.02 0.03 0.03 0.03 0.03 0.02 0.01 0.01 0.01 0.01 0.01 0.01 0.01 0.02 0.02 0.02 0.02 0.01 0.01 0.01 0.01 0.01 0.02 0.02
0.00 0.01 0.01 0.01 0.01 0.01 0.01 0.01 0.01 0.01 0.01 0.01 0.01 0.02 0.02 0.02 0.02 0.02 0.01 0.02 0.02 0.02 0.03 0.03 0.03 0.02 0.02 0.01 0.02 0.02 0.01 0.01 0.02 0.02 0.02 0.02 0.01 0.01 0.01 0.01 0.01 0.02 0.02
MSLP
1005.93 1006.14 1006.33 1006.52 1006.77 1007.11 1007.58 1008.21 1009.01 1009.97 1011.03 1012.13 1013.22 1014.24 1015.14 1015.88 1016.47 1016.93 1017.28 1017.57 1017.85 1018.14 1018.48 1018.87 1019.30 1019.77 1020.25 1020.73 1021.19 1021.60 1021.98 1022.29 1022.55 1022.75 1022.89 1022.96 1022.96 1022.89 1022.77 1022.60 1022.39 1022.17 1021.95
1005.56 1005.88 1006.16 1006.42 1006.69 1007.01 1007.43 1008.00 1008.73 1009.62 1010.63 1011.71 1012.81 1013.85 1014.79 1015.60 1016.25 1016.76 1017.17 1017.52 1017.83 1018.16 1018.51 1018.90 1019.33 1019.78 1020.23 1020.68 1021.10 1021.50 1021.86 1022.18 1022.46 1022.69 1022.86 1022.98 1023.01 1022.97 1022.86 1022.69 1022.46 1022.22 1021.97
1004.93 1005.37 1005.77 1006.13 1006.47 1006.82 1007.23 1007.76 1008.43 1009.25 1010.20 1011.24 1012.32 1013.36 1014.33 1015.18 1015.89 1016.48 1016.97 1017.38 1017.76 1018.13 1018.51 1018.91 1019.32 1019.74 1020.15 1020.54 1020.92 1021.28 1021.62 1021.95 1022.25 1022.53 1022.76 1022.93 1023.03 1023.04 1022.96 1022.80 1022.58 1022.31 1022.03
1004.05 1004.61 1005.15 1005.64 1006.08 1006.50 1006.95 1007.47 1008.11 1008.88 1009.77 1010.76 1011.79 1012.82 1013.79 1014.67 1015.43 1016.09 1016.65 1017.14 1017.59 1018.01 1018.43 1018.84 1019.24 1019.62 1019.99 1020.33 1020.66 1020.98 1021.30 1021.63 1021.96 1022.28 1022.58 1022.83 1023.00 1023.08 1023.05 1022.93 1022.71 1022.44 1022.14
1003.00 1003.66 1004.33 1004.95 1005.52 1006.04 1006.56 1007.12 1007.76 1008.50 1009.36 1010.30 1011.29 1012.28 1013.24 1014.12 1014.92 1015.62 1016.24 1016.80 1017.31 1017.79 1018.24 1018.67 1019.07 1019.43 1019.75 1020.05 1020.34 1020.62 1020.92 1021.25 1021.61 1021.98 1022.35 1022.67 1022.92 1023.08 1023.12 1023.04 1022.86 1022.60 1022.28
1001.91 1002.65 1003.42 1004.16 1004.84 1005.48 1006.08 1006.70 1007.38 1008.13 1008.97 1009.87 1010.83 1011.79 1012.72 1013.59 1014.39 1015.12 1015.78 1016.38 1016.94 1017.46 1017.95 1018.40 1018.80 1019.16 1019.47 1019.74 1019.99 1020.26 1020.54 1020.88 1021.25 1021.66 1022.08 1022.47 1022.79 1023.02 1023.13 1023.11 1022.97 1022.74 1022.43
1000.96 1001.72 1002.54 1003.35 1004.12 1004.84 1005.53 1006.22 1006.95 1007.74 1008.59 1009.49 1010.42 1011.36 1012.26 1013.11 1013.89 1014.62 1015.29 1015.91 1016.50 1017.05 1017.57 1018.05 1018.47 1018.84 1019.15 1019.42 1019.67 1019.92 1020.20 1020.53 1020.91 1021.34 1021.79 1022.22 1022.60 1022.89 1023.06 1023.11 1023.02 1022.83 1022.54
1000.34 1001.06 1001.86 1002.67 1003.45 1004.21 1004.96 1005.71 1006.49 1007.32 1008.21 1009.13 1010.06 1010.98 1011.86 1012.68 1013.44 1014.14 1014.80 1015.42 1016.02 1016.59 1017.14 1017.64 1018.09 1018.49 1018.82 1019.11 1019.37 1019.63 1019.90 1020.23 1020.61 1021.04 1021.49 1021.94 1022.35 1022.68 1022.90 1023.00 1022.98 1022.83 1022.59
1000.21 1000.81 1001.50 1002.22 1002.94 1003.67 1004.41 1005.19 1006.01 1006.89 1007.81 1008.76 1009.71 1010.63 1011.50 1012.30 1013.03 1013.70 1014.33 1014.94 1015.53 1016.11 1016.67 1017.21 1017.70 1018.13 1018.51 1018.83 1019.11 1019.38 1019.66 1019.98 1020.34 1020.74 1021.18 1021.62 1022.03 1022.38 1022.63 1022.78 1022.81 1022.73 1022.53
1000.66 1001.07 1001.56 1002.09 1002.67 1003.29 1003.96 1004.70 1005.52 1006.42 1007.38 1008.36 1009.34 1010.27 1011.14 1011.93 1012.64 1013.28 1013.89 1014.47 1015.05 1015.63 1016.21 1016.77 1017.29 1017.78 1018.20 1018.56 1018.88 1019.17 1019.45 1019.75 1020.08 1020.45 1020.85 1021.25 1021.64 1021.99 1022.26 1022.45 1022.53 1022.50 1022.37
1001.70 1001.86 1002.07 1002.35 1002.69 1003.12 1003.65 1004.30 1005.07 1005.96 1006.92 1007.92 1008.92 1009.87 1010.75 1011.54 1012.23 1012.86 1013.44 1014.01 1014.57 1015.15 1015.74 1016.32 1016.89 1017.41 1017.87 1018.28 1018.63 1018.93 1019.22 1019.50 1019.81 1020.13 1020.48 1020.84 1021.20 1021.52 1021.80 1022.01 1022.14 1022.17 1022.10
1003.22 1003.08 1002.98 1002.95 1003.01 1003.19 1003.52 1004.02 1004.70 1005.52 1006.46 1007.45 1008.45 1009.41 1010.29 1011.09 1011.78 1012.41 1012.98 1013.54 1014.10 1014.68 1015.28 1015.88 1016.46 1017.01 1017.51 1017.95 1018.32 1018.65 1018.93 1019.20 1019.48 1019.76 1020.07 1020.39 1020.71 1021.01 1021.28 1021.51 1021.66 1021.74 1021.72
1005.02 1004.58 1004.16 1003.81 1003.57 1003.48 1003.58 1003.90 1004.43 1005.15 1006.02 1006.97 1007.95 1008.90 1009.78 1010.58 1011.28 1011.92 1012.50 1013.06 1013.63 1014.22 1014.82 1015.43 1016.02 1016.59 1017.10 1017.55 1017.94 1018.27 1018.56 1018.83 1019.08 1019.34 1019.62 1019.90 1020.19 1020.48 1020.75 1020.97 1021.15 1021.26 1021.29
1006.89 1006.18 1005.47 1004.83 1004.30 1003.95 1003.82 1003.93 1004.30 1004.89 1005.65 1006.53 1007.45 1008.37 1009.24 1010.04 1010.76 1011.41 1012.01 1012.59 1013.17 1013.77 1014.37 1014.98 1015.58 1016.14 1016.65 1017.10 1017.49 1017.82 1018.11 1018.37 1018.63 1018.88 1019.14 1019.42 1019.69 1019.97 1020.23 1020.46 1020.65 1020.78 1020.83
1008.61 1007.68 1006.75 1005.87 1005.11 1004.54 1004.21 1004.13 1004.34 1004.78 1005.41 1006.18 1007.03 1007.89 1008.73 1009.52 1010.24 1010.91 1011.55 1012.16 1012.76 1013.37 1013.98 1014.58 1015.16 1015.70 1016.19 1016.63 1017.01 1017.34 1017.63 1017.89 1018.16 1018.42 1018.69 1018.97 1019.25 1019.53 1019.78 1020.01 1020.19 1020.32 1020.39
1010.05 1008.96 1007.87 1006.84 1005.92 1005.20 1004.71 1004.49 1004.54 1004.83 1005.33 1005.98 1006.73 1007.52 1008.31 1009.08 1009.81 1010.50 1011.16 1011.81 1012.44 1013.07 1013.68 1014.27 1014.83 1015.34 1015.80 1016.20 1016.56 1016.88 1017.17 1017.45 1017.73 1018.02 1018.31 1018.61 1018.91 1019.19 1019.44 1019.66 1019.83 1019.94 1019.99
1011.12 1009.95 1008.79 1007.68 1006.69 1005.89 1005.31 1004.98 1004.91 1005.08 1005.45 1005.97 1006.61 1007.32 1008.05 1008.79 1009.52 1010.23 1010.93 1011.61 1012.28 1012.92 1013.54 1014.11 1014.64 1015.11 1015.53 1015.90 1016.23 1016.54 1016.83 1017.12 1017.43 1017.75 1018.07 1018.40 1018.71 1018.99 1019.24 1019.43 1019.57 1019.65 1019.67
1011.85 1010.67 1009.50 1008.39 1007.41 1006.59 1005.98 1005.60 1005.45 1005.52 1005.78 1006.19 1006.73 1007.35 1008.02 1008.73 1009.46 1010.18 1010.91 1011.62 1012.32 1012.98 1013.59 1014.16 1014.66 1015.10 1015.48 1015.81 1016.11 1016.40 1016.69 1016.99 1017.32 1017.66 1018.01 1018.35 1018.67 1018.95 1019.18 1019.34 1019.44 1019.47 1019.44
1012.36 1011.20 1010.08 1009.03 1008.10 1007.33 1006.73 1006.34 1006.15 1006.15 1006.33 1006.65 1007.10 1007.64 1008.26 1008.94 1009.65 1010.39 1011.14 1011.88 1012.59 1013.27 1013.89 1014.44 1014.92 1015.32 1015.67 1015.97 1016.24 1016.51 1016.80 1017.10 1017.44 1017.79 1018.15 1018.49 1018.80 1019.06 1019.25 1019.36 1019.40 1019.37 1019.29
1012.78 1011.68 1010.63 1009.67 1008.82 1008.12 1007.58 1007.20 1007.00 1006.96 1007.08 1007.34 1007.72 1008.20 1008.77 1009.42 1010.12 1010.86 1011.63 1012.38 1013.12 1013.80 1014.42 1014.96 1015.41 1015.79 1016.11 1016.38 1016.63 1016.89 1017.16 1017.46 1017.78 1018.13 1018.47 1018.79 1019.07 1019.29 1019.42 1019.47 1019.45 1019.35 1019.20
1013.24 1012.20 1011.23 1010.37 1009.62 1009.00 1008.51 1008.18 1007.99 1007.94 1008.02 1008.23 1008.56 1009.00 1009.54 1010.16 1010.85 1011.59 1012.35 1013.12 1013.85 1014.53 1015.14 1015.67 1016.11 1016.46 1016.76 1017.01 1017.24 1017.48 1017.73 1018.01 1018.31 1018.63 1018.93 1019.21 1019.44 1019.59 1019.66 1019.64 1019.54 1019.37 1019.16
1013.82 1012.84 1011.96 1011.18 1010.52 1009.98 1009.55 1009.26 1009.09 1009.04 1009.11 1009.29 1009.59 1010.01 1010.52 1011.12 1011.80 1012.52 1013.27 1014.02 1014.75 1015.41 1016.00 1016.51 1016.93 1017.26 1017.54 1017.78 1017.99 1018.21 1018.44 1018.69 1018.95 1019.22 1019.47 1019.69 1019.84 1019.92 1019.92 1019.83 1019.66 1019.43 1019.15
1014.54 1013.63 1012.82 1012.12 1011.53 1011.05 1010.68 1010.42 1010.27 1010.23 1010.30 1010.48 1010.77 1011.16 1011.66 1012.24 1012.90 1013.60 1014.33 1015.05 1015.74 1016.37 1016.93 1017.40 1017.80 1018.11 1018.37 1018.59 1018.79 1018.99 1019.20 1019.41 1019.63 1019.84 1020.03 1020.17 1020.24 1020.25 1020.17 1020.01 1019.78 1019.50 1019.18
1015.36 1014.52 1013.78 1013.15 1012.62 1012.19 1011.87 1011.64 1011.51 1011.49 1011.56 1011.74 1012.03 1012.42 1012.90 1013.47 1014.10 1014.77 1015.45 1016.12 1016.76 1017.34 1017.85 1018.29 1018.64 1018.94 1019.18 1019.38 1019.57 1019.75 1019.93 1020.10 1020.27 1020.42 1020.54 1020.61 1020.61 1020.54 1020.40 1020.19 1019.92 1019.60 1019.24
1016.22 1015.45 1014.78 1014.22 1013.74 1013.36 1013.07 1012.87 1012.76 1012.75 1012.84 1013.03 1013.32 1013.71 1014.18 1014.73 1015.32 1015.95 1016.58 1017.19 1017.76 1018.28 1018.73 1019.11 1019.42 1019.69 1019.90 1020.09 1020.26 1020.43 1020.58 1020.72 1020.84 1020.94 1020.99 1020.99 1020.93 1020.80 1020.61 1020.36 1020.06 1019.72 1019.35
1017.04 1016.36 1015.77 1015.27 1014.85 1014.51 1014.25 1014.06 1013.98 1013.98 1014.08 1014.28 1014.58 1014.97 1015.44 1015.96 1016.53 1017.11 1017.68 1018.22 1018.71 1019.15 1019.53 1019.85 1020.12 1020.35 1020.54 1020.71 1020.87 1021.01 1021.14 1021.25 1021.33 1021.38 1021.38 1021.32 1021.21 1021.04 1020.81 1020.54 1020.23 1019.88 1019.50
Thickness
5585 5591 5596 5600 5604 5608 5613 5617 5620 5624 5628 5630 5631 5633 5634 5636 5637 5639 5640 5640 5641 5641 5641 5639 5638 5637 5636 5634 5632 5630 5628 5625 5624 5621 5617 5616 5616 5614 5612 5610 5608 5606 5604
5575 5581 5585 5589 5594 5598 5602 5607 5611 5614 5618 5621 5623 5625 5626 5627 5629 5630 5631 5632 5632 5633 5633 5632 5630 5630 5628 5626 5624 5622 5619 5616 5615 5611 5608 5605 5604 5604 5604 5601 5600 5597 5595
5567 5571 5575 5579 5583 5588 5592 5597 5600 5605 5609 5612 5614 5616 5617 5617 5618 5620 5622 5623 5624 5625 5625 5624 5623 5622 5621 5618 5616 5615 5612 5608 5606 5604 5601 5596 5594 5592 5594 5593 5591 5589 5587
5560 5563 5566 5570 5574 5578 5583 5587 5591 5595 5599 5602 5605 5607 5607 5607 5609 5611 5613 5614 5616 5616 5616 5615 5615 5614 5612 5611 5609 5608 5606 5602 5598 5596 5594 5591 5588 5584 5584 5584 5582 5580 5578
5553 5556 5559 5562 5566 5569 5573 5577 5581 5585 5589 5592 5595 5597 5598 5599 5601 5602 5603 5605 5606 5607 5607 5607 5606 5605 5604 5603 5602 5600 5599 5596 5593 5589 5586 5583 5580 5578 5575 5574 5574 5572 5571
5546 5549 5551 5553 5556 5560 5564 5567 5571 5574 5578 5582 5585 5588 5589 5590 5591 5593 5594 5595 5596 5597 5598 5598 5598 5597 5596 5595 5594 5593 5591 5589 5586 5583 5581 5578 5575 5571 5567 5566 5565 5564 5563
5537 5539 5541 5543 5546 5550 5554 5557 5561 5564 5568 5572 5575 5578 5579 5581 5582 5583 5584 5585 5586 5587 5589 5589 5589 5589 5588 5587 5586 5585 5583 5581 5579 5576 5574 5572 5570 5568 5564 5560 5558 5556 5555
5529 5531 5534 5536 5538 5541 5544 5547 5551 5554 5558 5561 5565 5567 5569 5571 5573 5574 5575 5577 5578 5579 5580 5580 5580 5580 5580 5579 5578 5577 5576 5574 5571 5569 5567 5565 5563 5561 5558 5555 5551 5549 5548
5519 5521 5524 5527 5529 5532 5535 5538 5542 5545 5548 5551 5554 5557 5559 5561 5563 5564 5566 5567 5569 5570 5570 5571 5571 5571 5572 5571 5570 5569 5568 5566 5564 5562 5560 5558 5556 5554 5552 5549 5546 5542 5541
5509 5512 5515 5517 5519 5522 5525 5528 5531 5535 5538 5541 5544 5547 5549 5551 5553 5555 5556 5558 5559 5560 5561 5562 5562 5562 5563 5563 5562 5561 5560 5558 5557 5555 5553 5552 5550 5548 5545 5542 5540 5537 5533
5499 5502 5504 5507 5509 5511 5515 5518 5521 5524 5527 5531 5534 5536 5538 5541 5543 5545 5546 5548 5549 5550 5551 5553 5553 5554 5554 5555 5554 5553 5552 5551 5549 5548 5547 5546 5544 5541 5538 5536 5533 5530 5527
5490 5491 5494 5496 5499 5501 5504 5507 5510 5514 5517 5521 5524 5526 5528 5530 5532 5534 5536 5538 5539 5540 5541 5543 5544 5545 5546 5546 5546 5546 5545 5544 5542 5541 5540 5539 5537 5535 5532 5529 5527 5524 5521
5480 5481 5482 5485 5488 5490 5493 5496 5500 5504 5507 5510 5513 5515 5517 5520 5522 5524 5525 5527 5529 5530 5531 5532 5534 5535 5536 5537 5538 5538 5537 5536 5535 5534 5533 5531 5530 5528 5526 5524 5521 5518 5515
5471 5471 5472 5474 5477 5480 5484 5487 5490 5494 5497 5500 5502 5505 5507 5509 5511 5513 5515 5516 5518 5520 5521 5523 5524 5525 5527 5528 5529 5529 5529 5528 5528 5527 5526 5525 5524 5523 5521 5518 5516 5512 5509
5462 5463 5463 5465 5467 5470 5473 5477 5481 5484 5487 5490 5492 5494 5497 5499 5501 5503 5504 5506 5508 5510 5511 5513 5514 5516 5517 5519 5520 5520 5521 5520 5520 5519 5519 5519 5518 5517 5515 5513 5510 5506 5502
5453 5454 5455 5457 5458 5461 5464 5467 5471 5474 5477 5480 5482 5484 5486 5488 5490 5492 5494 5495 5497 5499 5500 5502 5504 5506 5508 5511 5512 5512 5512 5512 5512 5512 5512 5511 5511 5510 5508 5506 5504 5501 5497
5442 5444 5446 5448 5450 5453 5456 5458 5462 5465 5467 5469 5472 5474 5476 5478 5479 5481 5483 5484 5486 5488 5490 5492 5494 5496 5499 5502 5503 5503 5503 5504 5504 5503 5503 5504 5503 5501 5500 5498 5496 5494 5492
5433 5435 5436 5439 5442 5444 5447 5449 5452 5455 5457 5459 5461 5463 5466 5467 5469 5471 5472 5474 5476 5477 5480 5482 5484 5486 5489 5492 5494 5495 5494 5495 5495 5496 5495 5495 5495 5494 5493 5491 5488 5487 5485
5425 5426 5428 5430 5433 5435 5438 5440 5442 5444 5447 5449 5451 5453 5455 5457 5459 5461 5462 5464 5465 5467 5470 5472 5474 5476 5479 5482 5484 5485 5485 5486 5487 5488 5487 5487 5487 5488 5486 5484 5482 5480 5479
5416 5418 5419 5421 5423 5426 5428 5430 5432 5434 5436 5439 5441 5443 5445 5447 5449 5451 5453 5454 5456 5458 5460 5463 5464 5467 5469 5472 5474 5476 5477 5477 5479 5479 5479 5480 5480 5480 5479 5477 5475 5474 5473
5408 5409 5410 5412 5414 5416 5418 5420 5422 5423 5426 5429 5431 5433 5435 5437 5440 5441 5443 5444 5446 5448 5450 5453 5455 5457 5460 5463 5465 5467 5468 5469 5470 5471 5471 5472 5473 5472 5471 5470 5469 5468 5466
5399 5399 5400 5402 5404 5406 5408 5410 5412 5415 5416 5418 5421 5423 5425 5427 5430 5431 5433 5434 5436 5438 5440 5442 5444 5447 5450 5453 5456 5458 5460 5461 5462 5463 5464 5464 5465 5464 5464 5463 5462 5461 5459
5389 5390 5391 5392 5394 5396 5399 5400 5403 5404 5405 5407 5410 5413 5415 5417 5419 5421 5423 5424 5426 5427 5429 5431 5434 5437 5440 5443 5447 5449 5451 5452 5454 5455 5456 5456 5456 5455 5455 5455 5455 5453 5451
5379 5380 5381 5383 5385 5387 5389 5391 5392 5395 5397 5398 5400 5402 5404 5407 5409 5411 5413 5414 5416 5417 5420 5422 5424 5427 5430 5433 5437 5439 5441 5443 5445 5446 5447 5447 5447 5446 5447 5446 5446 5445 5444
5370 5371 5372 5374 5376 5378 5380 5382 5384 5385 5387 5388 5390 5392 5395 5397 5399 5401 5403 5405 5407 5409 5411 5413 5415 5417 5421 5425 5428 5430 5432 5434 5436 5436 5437 5437 5437 5437 5437 5437 5437 5437 5437
5361 5362 5363 5364 5366 5369 5371 5373 5375 5376 5378 5380 5381 5383 5385 5387 5389 5392 5394 5396 5398 5400 5403 5405 5407 5409 5413 5416 5419 5421 5424 5426 5427 5427 5427 5428 5429 5429 5429 5429 5429 5429 5429